Theta_e
348 347 349 350 345 343 343 345 345 345 345 344 344 339 337 337 338 338 344 350 347 344 345 346 351 353 353 348 351 352 353 352 352 350 349 349 349 346 350 349 345 346 346
345 348 348 350 351 349 344 343 346 347 346 346 341 338 336 335 338 342 346 349 349 348 353 353 353 352 351 349 350 350 350 351 351 350 350 347 346 347 349 349 345 346 349
345 349 349 350 351 351 347 344 343 344 345 342 340 337 336 342 341 343 347 350 351 351 352 353 353 352 351 352 350 347 349 350 351 349 348 344 351 349 344 350 349 349 346
345 351 350 349 351 351 351 351 350 350 348 344 341 340 346 348 346 340 350 350 351 352 351 351 352 353 353 353 350 351 350 349 348 345 346 348 348 351 350 346 346 347 344
345 349 348 348 349 351 350 351 351 352 352 351 345 346 345 343 347 343 350 351 350 350 352 351 349 350 351 351 349 343 345 346 344 344 347 348 348 347 349 347 344 344 338
344 348 349 349 351 351 350 350 351 352 351 351 351 350 345 343 348 349 348 351 348 350 351 346 343 348 346 345 338 341 341 343 343 341 343 344 345 348 347 345 342 337 339
348 347 350 345 350 350 351 351 350 351 351 350 351 351 351 352 352 350 345 350 345 343 346 347 349 341 347 345 341 336 338 348 341 340 339 341 341 342 347 347 339 333 331
347 351 352 347 348 350 350 351 351 350 350 351 351 351 351 351 351 351 351 351 352 351 347 347 348 346 339 344 341 338 337 341 339 339 339 336 334 341 344 348 347 336 332
345 346 351 353 350 351 350 351 351 351 351 351 351 352 352 351 352 351 351 352 351 351 349 350 348 348 346 342 342 344 340 342 339 337 337 336 331 336 347 348 349 347 344
345 344 350 352 348 350 350 351 352 352 352 349 353 351 352 353 352 351 349 348 351 350 350 349 348 349 348 345 347 343 348 348 341 337 336 337 335 335 346 348 348 345 345
349 347 347 351 354 349 348 351 352 353 353 353 353 352 351 350 351 351 349 347 350 350 349 341 344 350 349 348 347 348 348 344 342 340 337 337 339 337 346 346 347 344 347
352 350 349 349 353 352 350 352 353 352 351 352 345 345 343 345 346 349 347 347 350 350 349 341 345 345 348 347 347 348 344 341 341 340 339 338 337 339 340 343 348 344 347
351 351 351 350 351 351 352 353 355 352 351 347 343 345 345 345 344 345 344 342 339 346 342 342 344 346 346 344 343 343 342 340 340 341 341 340 336 336 335 340 341 348 346
351 351 350 350 351 351 352 353 349 347 344 343 342 344 344 345 343 344 344 343 344 342 343 344 344 342 343 343 342 340 341 340 340 340 341 341 340 337 336 336 341 348 342
350 350 349 349 349 348 348 343 343 344 343 341 344 344 343 343 345 345 345 342 342 344 344 345 344 342 338 339 340 341 344 344 343 340 342 342 341 341 336 335 340 349 348
347 346 349 348 346 344 342 341 342 343 341 342 345 345 345 346 346 346 345 345 342 345 345 345 344 345 343 339 339 338 341 343 344 342 342 343 343 343 342 340 337 340 350
346 345 346 345 343 342 341 341 342 343 342 344 346 347 347 347 347 347 346 344 345 346 344 344 343 346 346 344 341 344 344 343 343 343 344 344 343 343 344 343 342 338 341
347 344 343 343 344 342 342 342 348 348 347 347 348 349 349 348 348 348 348 346 346 344 342 346 347 346 346 345 344 344 345 345 343 343 344 345 344 344 344 341 343 343 340
349 348 345 344 344 343 343 346 350 351 350 349 349 350 350 349 349 349 348 348 347 346 343 343 343 345 346 345 345 345 344 344 344 343 344 344 343 343 341 336 338 341 342
350 349 348 347 347 346 345 348 350 350 351 351 351 349 348 349 350 348 348 348 345 346 345 344 344 346 346 344 342 343 344 345 345 345 344 344 344 343 342 339 338 336 337
349 350 350 349 349 350 349 350 350 350 351 350 349 349 348 349 350 349 347 347 346 346 347 347 346 347 344 343 344 342 342 345 346 346 343 345 345 345 344 343 342 339 337
348 349 349 350 349 351 351 350 351 350 349 349 349 349 349 349 348 349 347 346 347 348 348 347 348 347 346 344 346 342 347 345 345 345 345 345 346 346 346 346 344 344 342
348 348 348 349 348 350 350 350 350 350 350 350 350 349 349 349 348 348 348 347 348 348 348 349 349 347 348 348 345 343 346 350 343 343 345 346 346 346 346 345 345 345 344
347 347 348 348 348 348 349 350 350 350 350 351 350 349 348 349 348 348 349 348 348 349 348 350 348 348 348 349 346 346 344 342 345 345 341 345 345 345 345 345 345 345 345
343 347 347 348 349 349 349 349 349 350 350 348 349 350 348 348 348 348 348 349 348 348 348 348 347 347 347 345 347 346 346 345 345 343 347 343 340 345 345 344 346 345 345
348 348 348 348 349 349 348 349 349 349 349 349 349 349 349 348 348 349 349 349 348 348 348 346 348 348 348 349 348 347 346 345 346 344 342 343 343 342 342 342 344 345 345
Wind_Speed
22 26 24 21 21 22 23 25 25 26 28 28 26 23 21 19 19 18 18 18 18 17 15 15 16 16 18 18 19 19 20 18 18 17 16 15 15 16 16 16 17 16 16
33 28 25 22 20 20 23 25 25 27 29 28 24 22 21 19 18 17 16 17 17 15 14 14 15 16 17 17 19 18 17 17 17 16 14 14 15 14 15 15 15 15 14
35 30 25 23 21 19 23 24 26 27 27 26 23 21 20 18 18 15 15 15 15 15 13 13 13 15 16 17 17 17 17 16 15 15 14 15 13 12 14 13 15 14 13
36 30 26 23 22 20 21 22 22 20 21 22 21 20 17 16 16 14 14 13 13 13 13 12 12 13 14 15 16 17 15 14 13 14 13 14 11 13 12 11 12 12 12
34 30 26 24 22 20 20 20 20 19 18 17 18 18 16 15 14 12 12 11 12 11 11 11 10 11 12 12 12 12 13 12 12 12 12 12 12 10 10 11 11 10 11
33 29 25 23 20 19 20 20 19 18 17 16 15 14 14 13 11 10 10 11 11 10 9 9 11 11 9 8 10 9 9 10 9 10 11 11 11 10 9 10 10 10 10
32 28 24 23 21 19 19 19 19 18 17 16 14 13 12 11 9 9 9 9 8 8 8 9 9 10 8 9 9 9 8 9 8 9 10 9 8 9 9 9 9 9 10
32 29 24 22 22 21 20 20 19 19 17 16 14 13 11 10 9 9 8 8 8 8 8 9 10 10 9 10 8 8 11 10 9 10 8 9 10 8 10 10 8 8 8
29 29 25 23 21 21 20 19 19 18 17 15 14 12 10 10 9 9 10 9 9 10 8 9 10 9 10 10 11 9 9 11 11 11 12 11 8 10 10 11 10 8 7
28 27 27 24 22 23 22 19 19 17 16 15 13 12 11 10 10 10 10 11 10 10 9 10 9 9 8 7 9 10 10 10 11 9 11 15 13 12 13 12 12 10 8
25 27 28 26 25 23 23 22 19 17 17 16 14 12 12 12 12 12 11 11 10 10 9 9 9 8 7 7 8 8 9 12 11 9 8 12 15 14 13 14 12 11 9
26 27 28 28 27 25 23 22 20 19 17 16 14 13 13 12 12 12 11 11 10 11 10 8 8 7 6 8 7 7 9 10 10 10 7 8 11 17 15 15 13 12 11
27 29 30 29 28 27 26 24 22 20 19 18 15 14 13 13 12 13 12 10 12 13 11 9 7 8 8 8 8 9 8 8 8 9 10 9 10 19 15 16 15 14 12
25 28 32 31 29 28 26 25 23 22 20 18 16 14 15 13 13 12 12 13 12 12 13 13 11 10 9 8 8 8 8 8 9 9 10 10 11 16 18 17 16 15 14
27 30 33 33 32 30 28 26 24 23 21 18 16 14 14 14 13 13 14 13 12 10 13 15 14 13 11 10 10 10 11 11 11 11 11 9 9 12 17 21 19 16 15
34 33 33 34 33 31 29 26 25 23 22 20 18 15 14 14 13 11 10 13 15 13 10 14 14 14 14 13 13 13 12 11 10 12 11 10 10 12 14 16 19 20 18
33 32 33 35 35 33 31 28 26 24 23 22 20 17 16 14 14 13 12 12 13 13 13 12 15 13 12 14 14 13 11 12 13 13 14 14 13 14 16 19 21 22 21
27 35 36 35 36 35 33 31 28 26 24 22 21 19 18 17 15 15 13 12 11 10 11 11 11 11 11 12 13 13 14 13 13 14 13 14 13 14 15 18 21 24 24
34 36 31 36 36 37 34 32 29 26 23 22 20 18 18 17 17 16 14 13 10 10 10 10 10 9 10 11 11 11 11 13 14 14 14 12 12 13 14 15 18 22 25
32 33 37 37 37 35 33 31 29 25 24 22 21 18 15 17 16 15 14 12 10 10 12 12 10 10 12 10 9 11 11 13 15 17 16 13 14 16 16 15 15 19 22
30 32 36 35 34 35 35 31 29 27 26 23 23 22 18 18 18 17 14 12 10 11 10 13 13 12 10 8 6 7 10 13 15 18 20 17 18 19 18 17 16 15 14
33 33 33 38 38 39 36 35 29 30 25 25 22 20 19 18 19 19 16 14 13 12 13 13 11 9 7 9 3 0 1 4 14 18 20 22 21 21 20 19 19 19 18
29 33 33 34 35 37 35 32 25 23 22 23 23 22 21 20 20 21 19 17 14 13 13 12 13 13 9 6 12 3 1 3 2 10 19 20 20 20 20 22 22 22 22
21 29 31 27 29 32 32 33 31 29 22 29 28 25 22 20 21 22 21 20 18 16 15 13 12 14 14 11 8 16 7 1 2 3 4 14 18 20 22 22 23 24 26
13 20 24 20 21 26 19 31 31 30 28 23 24 21 22 21 20 20 20 21 19 17 15 14 12 14 13 15 14 4 14 11 8 3 3 4 8 19 22 24 23 22 22
10 22 25 27 21 19 26 20 25 30 28 23 23 18 22 24 23 20 21 20 20 19 17 15 15 13 13 13 13 10 9 5 6 6 3 4 6 10 11 20 25 25 24
Wind_Direction
158 156 155 149 148 144 140 139 147 154 157 153 150 143 142 135 129 124 122 125 128 130 130 127 121 118 115 112 114 118 117 116 112 109 106 104 105 105 102 98 98 95 95
154 155 158 152 149 150 148 145 145 150 158 158 154 150 148 139 132 128 126 123 125 129 127 123 123 121 113 116 118 121 123 119 115 108 108 107 106 112 105 103 105 104 103
155 155 160 157 153 152 155 153 154 153 156 159 158 157 152 143 137 138 131 125 126 128 126 128 129 126 127 125 121 123 124 122 122 127 128 116 111 120 115 104 104 107 105
158 157 159 161 158 156 154 160 159 158 159 162 165 162 154 146 147 148 142 140 137 135 135 135 139 135 130 132 133 132 131 128 122 126 137 126 119 115 120 118 118 110 108
159 162 160 162 163 159 157 160 163 164 161 161 167 163 161 158 157 161 156 153 152 151 147 146 146 140 134 134 134 141 138 135 132 131 137 142 132 127 133 127 122 121 116
160 163 161 162 162 163 163 163 164 166 165 170 175 172 174 177 181 180 176 169 173 165 167 170 166 169 154 145 147 148 153 149 154 149 146 149 144 138 139 134 130 128 123
162 163 166 169 165 167 169 168 170 171 171 175 179 178 177 180 180 186 191 185 197 198 199 205 207 207 208 191 189 195 187 157 180 189 184 166 164 152 153 147 136 132 127
163 164 166 174 171 172 175 173 175 175 177 180 184 185 188 193 195 201 209 209 219 231 228 225 226 228 220 200 218 217 210 197 207 211 199 209 198 184 172 165 152 141 135
167 169 170 176 178 178 179 178 180 178 183 190 190 192 202 202 200 209 220 227 235 240 241 242 241 240 229 214 217 219 213 213 217 221 226 209 197 199 195 180 179 166 150
171 175 176 179 183 186 183 184 188 190 192 197 201 197 208 212 215 220 228 231 235 233 232 237 233 235 232 225 218 219 217 218 220 223 235 223 212 206 200 194 191 185 183
178 183 185 184 189 192 189 189 197 198 201 204 208 209 212 217 220 231 233 241 233 229 228 237 230 222 219 215 218 211 216 223 223 221 227 218 212 208 198 197 202 195 194
183 188 191 191 193 195 193 193 201 201 204 209 214 213 225 227 228 234 237 242 233 233 231 238 228 229 214 213 213 208 219 227 229 225 218 209 217 204 201 205 208 205 206
187 190 193 194 195 195 198 198 203 202 208 214 218 218 224 230 235 235 239 237 244 239 235 232 224 222 219 224 218 217 224 235 234 235 232 240 234 214 213 210 213 216 219
188 195 197 196 197 199 202 204 207 208 213 218 220 222 227 230 234 236 241 242 246 248 240 233 236 234 226 226 225 229 234 238 242 239 236 238 229 218 223 217 223 221 218
195 203 204 199 202 201 205 209 211 213 215 220 221 220 226 229 235 241 246 246 244 251 247 237 241 241 236 232 234 242 244 249 249 247 247 230 234 228 227 234 224 222 225
205 204 208 205 205 204 207 211 215 217 218 220 223 220 222 228 238 247 243 244 246 260 266 243 246 248 241 238 242 243 248 248 249 251 254 249 239 242 241 237 230 223 229
203 204 213 211 207 208 209 213 216 218 220 222 225 225 224 227 233 246 244 251 253 256 252 245 242 247 244 235 238 243 245 243 247 254 264 265 259 257 249 239 240 239 236
201 206 213 212 212 211 213 216 219 221 224 225 230 233 231 230 232 243 251 259 251 256 247 233 240 244 242 242 234 238 245 244 247 257 272 275 250 251 251 248 246 242 240
211 209 212 211 213 212 213 217 223 225 227 232 238 240 243 234 234 242 247 255 263 252 237 233 244 250 255 248 244 244 243 243 249 259 269 253 247 253 252 251 248 247 242
212 210 212 211 211 213 213 218 224 228 235 236 240 239 239 231 233 234 240 250 260 251 229 234 244 247 252 258 258 251 249 244 247 249 257 252 251 259 259 256 253 248 244
215 212 219 213 214 213 214 217 224 229 231 233 227 234 238 238 234 235 240 246 253 248 251 240 244 249 258 248 261 250 246 241 245 243 245 249 251 255 263 263 260 258 255
210 214 216 220 217 218 216 217 217 218 221 224 226 228 228 232 235 233 234 242 249 258 253 236 219 231 247 237 248 185 330 244 238 237 241 245 250 253 258 264 262 262 262
207 210 217 219 217 216 217 215 209 211 218 220 225 229 227 231 235 238 237 239 246 258 257 257 234 233 238 252 222 187 151 240 315 239 237 241 245 251 252 255 257 259 260
216 215 217 216 216 217 217 216 212 209 204 223 227 231 231 233 233 238 244 237 240 253 257 250 247 243 243 256 237 228 237 243 211 312 263 249 248 249 251 252 255 257 258
234 197 202 207 208 207 228 219 223 230 227 230 230 231 231 231 235 237 238 231 238 249 246 246 249 235 245 241 239 195 226 238 247 213 284 310 283 253 253 253 255 257 262
188 193 194 194 183 180 220 242 236 228 232 231 234 233 236 232 232 236 231 233 240 241 244 248 250 244 239 244 249 233 236 211 213 203 228 279 267 273 269 256 253 256 261